Skip Page Navigation
NASA JPL Caltech
NASA Logo - Jet Propulsion Laboratory + View the NASA Portal
+ Near-Earth Object (NEO) Program
Search JPL
JPL Home Earth Solar System Stars & Galaxies Technology
JPL Solar System Dynamics
BODIES ORBITS EPHEMERIDES TOOLS PHYSICAL DATA DISCOVERY FAQ SITE MAP
JPL Small-Body Database Browser
Search: [ help ]  
131763 Donatbanki (2002 AJ11)
Classification: Main-belt Asteroid          SPK-ID: 2131763
Ephemeris | Orbit Diagram | Orbital Elements | Physical Parameters | Discovery Circumstances ]

[ show orbit diagram ]
Orbital Elements at Epoch 2456400.5 (2013-Apr-18.0) TDB
Reference: JPL 1 (heliocentric ecliptic J2000)
 Element Value Uncertainty (1-sigma)   Units 
e .1655280480655698 7.7894e-08  
a 2.362305163358438 2.0701e-08 AU
q 1.971277400732499 1.8537e-07 AU
i 1.761308067499087 1.2225e-05 deg
node 138.2106530562585 0.0002517 deg
peri 300.0740589023977 0.00025534 deg
M 77.42114106869826 4.2975e-05 deg
tp 2456115.293451605747
(2012-Jul-06.79345161)
0.00015657 JED
period 1326.179852229571
3.63
1.7432e-05
4.773e-08
d
yr
n .2714563936367821 3.5682e-09 deg/d
Q 2.753332925984378 2.4128e-08 AU
  Orbit Determination Parameters
   # obs. used (total)      252  
   data-arc span      5608 days (15.35 yr)  
   first obs. used      1997-11-29  
   last obs. used      2013-04-07  
   planetary ephem.      DE405  
   SB-pert. ephem.      SB405-CPV-2  
   condition code      0  
   fit RMS      .6531  
   data source      ORB  
   producer      Otto Matic  
   solution date      2013-Apr-29 19:03:28  

Additional Information
 Earth MOID = .986756 AU 
 T_jup = 3.531 
[ show covariance matrix ]

Ephemeris | Orbit Diagram | Orbital Elements | Physical Parameters | Discovery Circumstances ]

Physical Parameter Table
Parameter Symbol Value Units Sigma Reference Notes
absolute magnitude H 16.769 mag .48939 1 autocmod 2.5c

131763 Donátbánki           Discovered 2002 Jan. 11 by K. Sárneczky and Z. Heiner at Piszkéstet{o´´}.
Donát Bánki (1859-1922) was a Hungarian mechanical engineer, coinventor of the carburetor in 1893. In 1898 he invented the high-compression engine with a dual carburetor. Some sources say that the idea of the carburetor came from a flower-girl, sprinkling water onto her flowers by blowing spray from her mouth.
NOTE: some special characters may not display properly (any characters within {} are an attempt to place the proper accent above a character)
Reference: 20090209/MPCPages.arcLast Updated: 2009-02-11
Ephemeris | Orbit Diagram | Orbital Elements | Physical Parameters | Discovery Circumstances ]
ABOUT SSD CREDITS/AWARDS PRIVACY/COPYRIGHT GLOSSARY LINKS
FirstGov 2013-May-25 07:22 UT
(server date/time)  
NASA Home Page
Site Manager:   Donald K. Yeomans
Webmaster  Alan B. Chamberlin